TimeCET,TemperatureF,Dew PointF,Humidity,Sea Level PressureIn,VisibilityMPH,Wind Direction,Wind SpeedMPH,Gust SpeedMPH,PrecipitationIn,Events,Conditions,WindDirDegrees,DateUTC
12:15 AM,51.8,48.2,88,30.21,6.2,NNW,3.5,-,N/A,,Partly Cloudy,330,2012-11-23 23:15:00
12:45 AM,51.8,48.2,88,30.21,6.2,NNW,4.6,-,N/A,,Partly Cloudy,330,2012-11-23 23:45:00
12:55 AM,51.8,48.2,88,30.21,6.2,NNW,4.6,-,N/A,,Partly Cloudy,330,2012-11-23 23:55:00
1:00 AM,52,48,82,30.24,6,NNW,4.6,,,,Scattered Clouds,330,2012-11-24 00:00:00
1:15 AM,51.8,48.2,88,30.21,6.2,NNW,4.6,-,N/A,,Partly Cloudy,330,2012-11-24 00:15:00
1:45 AM,50.0,46.4,87,30.21,6.2,NW,4.6,-,N/A,,Partly Cloudy,310,2012-11-24 00:45:00
1:55 AM,50.0,46.4,87,30.21,6.2,NW,4.6,-,N/A,,Partly Cloudy,310,2012-11-24 00:55:00
2:15 AM,50.0,46.4,87,30.21,6.2,WNW,4.6,-,N/A,,Partly Cloudy,300,2012-11-24 01:15:00
2:45 AM,50.0,46.4,87,30.21,5.0,NNW,3.5,-,N/A,,Partly Cloudy,330,2012-11-24 01:45:00
2:55 AM,50.0,46.4,87,30.21,5.0,NNW,3.5,-,N/A,,Partly Cloudy,330,2012-11-24 01:55:00
3:15 AM,50.0,46.4,87,30.21,5.0,NW,4.6,-,N/A,,Partly Cloudy,320,2012-11-24 02:15:00
3:45 AM,50.0,44.6,82,30.18,5.0,NW,5.8,-,N/A,,Scattered Clouds,320,2012-11-24 02:45:00
3:55 AM,50.0,44.6,82,30.18,5.0,NW,5.8,-,N/A,,Scattered Clouds,320,2012-11-24 02:55:00
4:00 AM,49,45,83,30.21,5,NW,5.8,,,,Mist,320,2012-11-24 03:00:00
4:15 AM,48.2,46.4,93,30.18,5.0,NW,4.6,-,N/A,,Scattered Clouds,320,2012-11-24 03:15:00
4:45 AM,48.2,44.6,87,30.21,5.0,NW,6.9,-,N/A,,Partly Cloudy,320,2012-11-24 03:45:00
4:55 AM,48.2,44.6,87,30.21,5.0,NW,6.9,-,N/A,,Partly Cloudy,320,2012-11-24 03:55:00
5:15 AM,48.2,44.6,87,30.21,5.0,NW,6.9,-,N/A,,Partly Cloudy,320,2012-11-24 04:15:00
5:45 AM,48.2,42.8,82,30.21,5.0,NNW,5.8,-,N/A,,Partly Cloudy,330,2012-11-24 04:45:00
5:55 AM,48.2,42.8,82,30.21,5.0,NNW,5.8,-,N/A,,Partly Cloudy,330,2012-11-24 04:55:00
6:15 AM,48.2,42.8,82,30.21,5.0,NNW,5.8,-,N/A,,Partly Cloudy,330,2012-11-24 05:15:00
6:45 AM,44.6,41.0,87,30.21,5.0,NNW,4.6,-,N/A,,Partly Cloudy,330,2012-11-24 05:45:00
6:55 AM,44.6,41.0,87,30.21,5.0,NNW,4.6,-,N/A,,Partly Cloudy,330,2012-11-24 05:55:00
7:00 AM,45,41,79,30.22,5,NNW,4.6,,,,Mist,330,2012-11-24 06:00:00
7:15 AM,44.6,41.0,87,30.21,5.0,NNW,2.3,-,N/A,,Scattered Clouds,330,2012-11-24 06:15:00
7:45 AM,44.6,41.0,87,30.21,5.0,NW,5.8,-,N/A,,Partly Cloudy,320,2012-11-24 06:45:00
7:55 AM,44.6,41.0,87,30.21,5.0,NW,5.8,-,N/A,,Partly Cloudy,320,2012-11-24 06:55:00
8:15 AM,46.4,41.0,81,30.21,5.0,NW,4.6,-,N/A,,Partly Cloudy,320,2012-11-24 07:15:00
8:45 AM,48.2,42.8,82,30.21,5.0,NW,5.8,-,N/A,,Partly Cloudy,320,2012-11-24 07:45:00
8:55 AM,48.2,42.8,82,30.21,5.0,NW,5.8,-,N/A,,Partly Cloudy,320,2012-11-24 07:55:00
9:15 AM,51.8,44.6,76,30.21,5.0,WNW,4.6,-,N/A,,Partly Cloudy,300,2012-11-24 08:15:00
9:45 AM,53.6,46.4,77,30.24,5.0,NW,3.5,-,N/A,,Partly Cloudy,310,2012-11-24 08:45:00
9:55 AM,53.6,46.4,77,30.24,5.0,NW,3.5,-,N/A,,Partly Cloudy,310,2012-11-24 08:55:00
10:00 AM,54,46,67,30.24,5,NW,3.5,,,,Mist,310,2012-11-24 09:00:00
10:15 AM,55.4,48.2,77,30.24,5.0,WNW,4.6,-,N/A,,Partly Cloudy,290,2012-11-24 09:15:00
10:45 AM,57.2,50.0,77,30.24,6.2,West,3.5,-,N/A,,Scattered Clouds,280,2012-11-24 09:45:00
10:55 AM,57.2,50.0,77,30.24,6.2,West,3.5,-,N/A,,Scattered Clouds,280,2012-11-24 09:55:00
11:15 AM,59.0,51.8,77,30.21,6.2,West,2.3,-,N/A,,Scattered Clouds,280,2012-11-24 10:15:00
11:45 AM,62.6,51.8,68,30.21,6.2,SW,2.3,-,N/A,,Partly Cloudy,220,2012-11-24 10:45:00
11:55 AM,62.6,51.8,68,30.21,6.2,SW,2.3,-,N/A,,Partly Cloudy,220,2012-11-24 10:55:00
12:15 PM,64.4,55.4,73,30.21,6.2,South,3.5,-,N/A,,Partly Cloudy,190,2012-11-24 11:15:00
12:45 PM,66.2,55.4,68,30.21,6.2,SSE,8.1,-,N/A,,Scattered Clouds,150,2012-11-24 11:45:00
12:55 PM,66.2,55.4,68,30.21,6.2,SSE,8.1,-,N/A,,Scattered Clouds,150,2012-11-24 11:55:00
1:00 PM,67,56,59,30.22,9,SSE,8.1,,,,Partly Cloudy,150,2012-11-24 12:00:00
1:15 PM,66.2,55.4,68,30.21,6.2,SE,9.2,-,N/A,,Scattered Clouds,140,2012-11-24 12:15:00
1:45 PM,66.2,55.4,68,30.18,6.2,SE,8.1,-,N/A,,Scattered Clouds,140,2012-11-24 12:45:00
1:55 PM,66.2,55.4,68,30.18,6.2,SE,8.1,-,N/A,,Scattered Clouds,140,2012-11-24 12:55:00
2:15 PM,66.2,57.2,73,30.18,6.2,SSE,9.2,-,N/A,,Scattered Clouds,150,2012-11-24 13:15:00
2:45 PM,66.2,55.4,68,30.18,6.2,SSE,9.2,-,N/A,,Scattered Clouds,160,2012-11-24 13:45:00
2:55 PM,66.2,55.4,68,30.18,6.2,SSE,9.2,-,N/A,,Scattered Clouds,160,2012-11-24 13:55:00
3:15 PM,66.2,55.4,68,30.18,6.2,SSE,9.2,-,N/A,,Scattered Clouds,160,2012-11-24 14:15:00
3:45 PM,66.2,57.2,73,30.18,6.2,SE,9.2,-,N/A,,Partly Cloudy,140,2012-11-24 14:45:00
3:55 PM,66.2,57.2,73,30.18,6.2,SE,9.2,-,N/A,,Partly Cloudy,140,2012-11-24 14:55:00
4:00 PM,65,57,69,30.20,9,SE,9.2,,,,Scattered Clouds,140,2012-11-24 15:00:00
4:15 PM,64.4,55.4,73,30.18,6.2,SE,10.4,-,N/A,,Partly Cloudy,140,2012-11-24 15:15:00
4:45 PM,62.6,55.4,77,30.18,6.2,SE,9.2,-,N/A,,Partly Cloudy,140,2012-11-24 15:45:00
4:55 PM,62.6,55.4,77,30.18,6.2,SE,9.2,-,N/A,,Partly Cloudy,140,2012-11-24 15:55:00
5:15 PM,62.6,53.6,72,30.18,6.2,SE,6.9,-,N/A,,Partly Cloudy,140,2012-11-24 16:15:00
5:45 PM,60.8,53.6,77,30.18,6.2,SE,6.9,-,N/A,,Partly Cloudy,140,2012-11-24 16:45:00
5:55 PM,60.8,53.6,77,30.18,6.2,SE,6.9,-,N/A,,Partly Cloudy,140,2012-11-24 16:55:00
6:15 PM,60.8,53.6,77,30.18,6.2,SE,6.9,-,N/A,,Partly Cloudy,140,2012-11-24 17:15:00
6:45 PM,60.8,53.6,77,30.18,6.2,SE,5.8,-,N/A,,Partly Cloudy,130,2012-11-24 17:45:00
6:55 PM,60.8,53.6,77,30.18,6.2,SE,5.8,-,N/A,,Partly Cloudy,130,2012-11-24 17:55:00
7:00 PM,61,54,70,30.21,9,SE,5.8,,,,Scattered Clouds,130,2012-11-24 18:00:00
7:15 PM,60.8,53.6,77,30.18,6.2,SE,5.8,-,N/A,,Partly Cloudy,130,2012-11-24 18:15:00
7:45 PM,59.0,51.8,77,30.21,6.2,East,4.6,-,N/A,,Partly Cloudy,100,2012-11-24 18:45:00
7:55 PM,59.0,51.8,77,30.21,6.2,East,4.6,-,N/A,,Partly Cloudy,100,2012-11-24 18:55:00
8:15 PM,59.0,51.8,77,30.21,6.2,East,4.6,-,N/A,,Partly Cloudy,100,2012-11-24 19:15:00
8:45 PM,57.2,50.0,77,30.21,6.2,East,3.5,-,N/A,,Partly Cloudy,100,2012-11-24 19:45:00
8:55 PM,57.2,50.0,77,30.21,6.2,East,3.5,-,N/A,,Partly Cloudy,100,2012-11-24 19:55:00
9:15 PM,55.4,51.8,88,30.21,6.2,East,5.8,-,N/A,,Partly Cloudy,80,2012-11-24 20:15:00
9:45 PM,55.4,53.6,94,30.18,6.2,East,3.5,-,N/A,,Partly Cloudy,80,2012-11-24 20:45:00
9:55 PM,55.4,53.6,94,30.18,6.2,East,3.5,-,N/A,,Partly Cloudy,80,2012-11-24 20:55:00
10:00 PM,56,54,89,30.21,7,East,3.5,,,,Scattered Clouds,80,2012-11-24 21:00:00
10:15 PM,57.2,53.6,88,30.21,6.2,East,4.6,-,N/A,,Partly Cloudy,80,2012-11-24 21:15:00
10:45 PM,57.2,53.6,88,30.21,6.2,West,4.6,-,N/A,,Scattered Clouds,280,2012-11-24 21:45:00
10:55 PM,57.2,53.6,88,30.21,6.2,West,4.6,-,N/A,,Scattered Clouds,280,2012-11-24 21:55:00
11:15 PM,55.4,51.8,88,30.18,6.2,East,4.6,-,N/A,,Scattered Clouds,80,2012-11-24 22:15:00
11:45 PM,55.4,51.8,88,30.18,6.2,East,3.5,-,N/A,,Scattered Clouds,80,2012-11-24 22:45:00
11:55 PM,55.4,51.8,88,30.18,6.2,East,3.5,-,N/A,,Scattered Clouds,80,2012-11-24 22:55:00